GW1330 Weather Reports


time (UTC)temp
C
wind
direction
speed
KPH
gust
KPH
rain 1hr
cm
rain 24hr
cm
rain mn
cm
humidity
%
barometer
mb
20260510000352 15 75 0.0 0.0 0.00 0.30 0.30 85 1009.0
20260509235848 15 75 0.0 0.0 0.00 0.30 0.30 83 1009.0
20260509235345 15 75 1.6 1.6 0.00 0.30 0.30 82 1009.0
20260509234841 15 73 0.0 0.0 0.00 0.30 0.30 82 1009.0
20260509234338 15 69 0.0 0.0 0.00 0.30 0.30 82 1009.0
20260509233836 15 78 0.0 1.6 0.00 0.30 0.30 81 1009.0
20260509233333 15 79 0.0 1.6 0.00 0.30 0.30 81 1009.1
20260509232829 15 79 0.0 0.0 0.00 0.30 0.30 80 1009.0
20260509232327 15 80 1.6 1.6 0.00 0.30 0.30 79 1008.9
20260509231823 15 80 1.6 1.6 0.00 0.30 0.30 79 1009.0
20260509231320 15 78 0.0 1.6 0.00 0.30 0.30 79 1009.1
20260509230818 15 72 0.0 1.6 0.00 0.30 0.30 80 1009.1
20260509230315 15 70 0.0 1.6 0.00 0.30 0.30 79 1008.8
20260509225809 15 71 0.0 0.0 0.00 0.30 0.30 79 1009.0
20260509225307 15 68 0.0 1.6 0.00 0.30 0.30 78 1008.9
20260509224803 15 77 0.0 1.6 0.00 0.30 0.30 79 1008.9
20260509224259 16 75 0.0 1.6 0.00 0.30 0.30 79 1009.0
20260509223755 16 79 0.0 1.6 0.00 0.30 0.30 79 1009.1
20260509223253 16 74 0.0 0.0 0.00 0.30 0.30 79 1009.0
20260509222749 16 75 0.0 0.0 0.00 0.30 0.30 78 1009.0
20260509222245 16 70 0.0 1.6 0.00 0.30 0.30 79 1009.2
20260509221740 16 78 0.0 1.6 0.00 0.30 0.30 79 1008.9
20260509221237 16 70 0.0 0.0 0.00 0.30 0.30 78 1009.3
20260509220733 16 68 0.0 3.2 0.00 0.30 0.30 77 1008.9
20260509220230 16 83 1.6 3.2 0.00 0.30 0.30 79 1009.2
20260509215725 16 76 1.6 1.6 0.00 0.30 0.30 81 1008.9
20260509215222 16 76 3.2 3.2 0.00 0.30 0.30 79 1009.3
20260509214719 16 70 0.0 1.6 0.00 0.30 0.30 79 1009.2
20260509214216 16 77 0.0 1.6 0.00 0.30 0.30 78 1009.3
20260509213713 16 75 1.6 1.6 0.00 0.30 0.30 78 1009.3
20260509213208 16 75 1.6 3.2 0.00 0.30 0.30 78 1009.2
20260509212707 16 68 0.0 1.6 0.00 0.30 0.30 80 1009.4
20260509212203 16 82 1.6 1.6 0.00 0.30 0.30 79 1009.4
20260509211659 16 75 0.0 3.2 0.00 0.30 0.30 80 1009.4
20260509211156 16 86 3.2 3.2 0.00 0.30 0.30 80 1009.4
20260509210652 16 60 1.6 1.6 0.00 0.30 0.30 82 1009.6
20260509210144 15 76 1.6 4.8 0.00 0.30 0.30 83 1009.6
20260509205639 15 92 1.6 3.2 0.00 0.30 0.30 83 1009.7
20260509205138 15 74 0.0 1.6 0.00 0.30 0.30 84 1009.7
20260509204635 15 52 0.0 0.0 0.00 0.30 0.30 85 1010.0
20260509204131 15 52 0.0 0.0 0.00 0.30 0.30 86 1010.0
20260509203627 15 52 0.0 0.0 0.00 0.30 0.30 90 1010.0
20260509203126 15 52 0.0 0.0 0.00 0.30 0.30 90 1010.1
20260509202626 15 52 0.0 0.0 0.00 0.30 0.30 90 1010.2
20260509202121 14 52 0.0 1.6 0.00 0.30 0.30 90 1010.2
20260509201616 14 53 0.0 1.6 0.00 0.30 0.30 89 1010.0
20260509201114 14 52 0.0 1.6 0.00 0.30 0.30 89 1009.9
20260509200615 14 62 0.0 1.6 0.00 0.30 0.30 88 1009.8
20260509200105 14 63 0.0 1.6 0.00 0.30 0.30 88 1009.6
20260509195601 14 59 0.0 0.0 0.00 0.30 0.30 88 1009.6
20260509195056 14 59 0.0 0.0 0.00 0.30 0.30 88 1010.0
20260509194555 14 58 0.0 0.0 0.00 0.30 0.30 88 1010.2
20260509194054 14 58 0.0 0.0 0.00 0.30 0.30 87 1010.2
20260509193549 14 57 0.0 3.2 0.00 0.30 0.30 86 1010.2
20260509193045 15 59 0.0 3.2 0.00 0.30 0.30 86 1010.1
20260509192542 15 82 3.2 4.8 0.00 0.30 0.30 85 1010.0
20260509192037 15 75 0.0 1.6 0.00 0.30 0.30 85 1010.3
20260509191531 15 79 1.6 3.2 0.00 0.30 0.30 84 1010.5
20260509191027 15 65 0.0 3.2 0.00 0.30 0.30 86 1010.6
20260509190525 15 79 0.0 1.6 0.00 0.30 0.30 89 1010.5
20260509190023 14 81 1.6 3.2 0.00 0.30 0.30 88 1010.6
20260509185520 15 75 0.0 3.2 0.00 0.30 0.30 88 1010.7
20260509185016 14 76 0.0 3.2 0.00 0.30 0.30 90 1010.8
20260509184514 14 60 0.0 3.2 0.00 0.30 0.30 90 1011.0
20260509184010 13 67 0.0 1.6 0.00 0.30 0.30 91 1010.9
20260509183505 13 57 0.0 1.6 0.00 0.30 0.30 91 1010.9
20260509183002 13 73 0.0 1.6 0.00 0.30 0.30 91 1010.7
20260509182458 13 70 0.0 1.6 0.00 0.30 0.30 92 1010.9
20260509181955 13 70 1.6 1.6 0.00 0.30 0.30 92 1010.8
20260509181453 13 79 1.6 3.2 0.00 0.30 0.30 92 1010.8
20260509180951 13 72 0.0 3.2 0.00 0.30 0.30 94 1010.6
20260509180446 13 87 1.6 3.2 0.00 0.30 0.30 94 1010.6
20260509175943 13 89 1.6 3.2 0.00 0.30 0.30 94 1010.6
20260509175439 13 71 1.6 1.6 0.00 0.30 0.30 94 1011.1
20260509174936 12 78 3.2 3.2 0.00 0.30 0.30 95 1010.8
20260509174432 13 76 0.0 0.0 0.00 0.30 0.30 96 1011.0
20260509173927 12 76 0.0 0.0 0.00 0.30 0.30 96 1011.0
20260509173421 12 77 0.0 1.6 0.00 0.30 0.30 96 1011.2
20260509172918 13 66 0.0 0.0 0.00 0.30 0.30 97 1011.4
20260509172415 13 66 0.0 0.0 0.00 0.30 0.30 97 1011.5
20260509171911 13 66 0.0 0.0 0.00 0.30 0.30 97 1011.4
20260509171407 12 66 0.0 0.0 0.00 0.30 0.30 97 1011.5
20260509170903 12 65 0.0 0.0 0.00 0.30 0.30 97 1011.5
20260509170359 12 71 0.0 1.6 0.00 0.30 0.30 97 1011.7
20260509165855 12 68 0.0 0.0 0.00 0.30 0.30 97 1011.4
20260509165349 12 71 0.0 0.0 0.00 0.30 0.30 97 1011.5
20260509164845 12 58 0.0 0.0 0.00 0.30 0.30 97 1011.7
20260509164341 12 57 0.0 0.0 0.00 0.30 0.30 96 1011.6
20260509163838 12 70 0.0 0.0 0.00 0.30 0.30 97 1011.4
20260509163334 12 60 0.0 0.0 0.00 0.30 0.30 96 1011.4
20260509162833 11 55 0.0 0.0 0.00 0.30 0.30 96 1011.1
20260509162326 11 63 0.0 0.0 0.00 0.30 0.30 97 1011.2
20260509161823 11 61 0.0 3.2 0.00 0.30 0.30 96 1010.9
20260509161319 11 66 0.0 1.6 0.13 0.30 0.30 96 1010.8
20260509160815 11 77 1.6 3.2 0.13 0.30 0.30 96 1010.9
20260509160311 11 76 1.6 3.2 0.00 0.28 0.28 96 1010.9
20260509155806 11 74 0.0 0.0 0.00 0.28 0.28 95 1011.1
20260509155306 11 73 0.0 0.0 0.00 0.28 0.28 95 1011.2
20260509154759 11 73 0.0 0.0 0.18 0.28 0.28 95 1011.5
20260509154256 11 73 0.0 0.0 0.30 0.25 0.25 94 1011.9
20260509153753 11 73 0.0 0.0 0.48 0.25 0.25 94 1012.1
20260509153249 11 73 0.0 0.0 0.48 0.20 0.20 93 1012.2
20260509152746 12 73 0.0 0.0 0.61 0.18 0.18 93 1012.2
20260509152242 12 73 0.0 0.0 0.43 0.13 0.13 92 1012.5
20260509151739 12 73 0.0 0.0 0.30 0.08 0.08 92 1012.3
20260509151236 12 74 0.0 0.0 0.13 0.03 0.03 91 1012.3
20260509150734 12 74 0.0 0.0 0.13 0.03 0.03 91 1012.1
20260509150232 12 74 0.0 0.0 0.00 0.00 0.00 90 1012.2
20260509145728 12 74 0.0 0.0 0.00 0.00 0.00 90 1012.0
20260509145223 12 74 0.0 0.0 0.00 0.00 0.00 89 1012.0
20260509144720 12 74 0.0 0.0 0.00 0.00 0.00 89 1012.2
20260509144217 12 74 0.0 0.0 0.00 0.00 0.00 88 1011.9
20260509143714 12 74 0.0 0.0 0.00 0.00 0.00 87 1011.8
20260509143211 13 74 0.0 0.0 0.00 0.00 0.00 86 1011.8
20260509142706 13 74 0.0 0.0 0.00 0.00 0.00 84 1011.9
20260509142203 13 74 0.0 0.0 0.00 0.00 0.00 83 1011.8
20260509141659 13 73 0.0 0.0 0.00 0.00 0.00 81 1011.9
20260509141156 13 73 0.0 0.0 0.00 0.00 0.00 79 1011.8
20260509140653 12 73 0.0 0.0 0.00 0.00 0.00 79 1011.7
20260509140151 12 74 0.0 1.6 0.00 0.00 0.00 80 1011.5
20260509135647 13 64 0.0 1.6 0.00 0.00 0.00 81 1011.5
20260509135146 13 57 0.0 1.6 0.00 0.00 0.00 81 1011.6
20260509134642 13 71 0.0 3.2 0.00 0.00 0.00 79 1011.5
20260509134139 13 74 0.0 0.0 0.00 0.00 0.00 82 1011.5
20260509133637 12 75 0.0 1.6 0.00 0.00 0.00 82 1011.4
20260509133134 12 80 1.6 1.6 0.00 0.00 0.00 83 1011.6
20260509132632 12 76 0.0 1.6 0.00 0.00 0.00 84 1011.4
20260509132130 12 76 0.0 1.6 0.00 0.00 0.00 86 1011.5
20260509131626 12 83 1.6 1.6 0.00 0.00 0.00 86 1011.6
20260509131123 12 63 0.0 0.0 0.00 0.00 0.00 87 1011.2
20260509130619 12 62 0.0 0.0 0.00 0.00 0.00 86 1011.3
20260509130115 11 62 0.0 0.0 0.00 0.00 0.00 85 1011.1
20260509125612 11 55 0.0 1.6 0.00 0.00 0.00 85 1010.8
20260509125108 12 51 0.0 1.6 0.00 0.00 0.00 85 1010.7
20260509124605 12 53 0.0 0.0 0.00 0.00 0.00 86 1010.7
20260509124102 12 48 0.0 1.6 0.00 0.00 0.00 85 1010.8
20260509123600 12 61 0.0 1.6 0.00 0.00 0.00 84 1010.9
20260509123057 12 62 0.0 0.0 0.00 0.00 0.00 83 1011.3
20260509122553 12 62 0.0 0.0 0.00 0.00 0.00 84 1011.3
20260509122050 12 63 0.0 0.0 0.00 0.00 0.00 85 1011.6
20260509121546 12 63 0.0 0.0 0.00 0.00 0.00 85 1011.4
20260509121048 12 63 0.0 0.0 0.00 0.00 0.00 84 1011.4
20260509120542 12 63 0.0 0.0 0.00 0.00 0.00 84 1011.4
20260509120040 12 63 0.0 0.0 0.00 0.00 0.00 84 1011.3
20260509115537 11 63 0.0 0.0 0.00 0.00 0.00 83 1011.4
20260509115035 11 63 0.0 0.0 0.00 0.00 0.00 81 1010.9
20260509114533 11 62 0.0 0.0 0.00 0.00 0.00 82 1010.8
20260509114031 11 62 0.0 0.0 0.00 0.00 0.00 83 1011.1
20260509113529 11 63 0.0 0.0 0.00 0.00 0.00 83 1011.2
20260509113027 11 62 0.0 0.0 0.00 0.00 0.00 84 1011.2
20260509112523 11 63 0.0 1.6 0.00 0.00 0.00 82 1011.1
20260509112020 11 64 0.0 0.0 0.00 0.00 0.00 81 1010.8
20260509111517 11 64 0.0 1.6 0.00 0.00 0.00 82 1011.1
20260509111014 11 64 0.0 0.0 0.00 0.00 0.00 83 1010.6
20260509110510 11 64 0.0 0.0 0.00 0.00 0.00 81 1010.9
20260509110008 11 54 0.0 0.0 0.00 0.00 0.00 81 1010.7
20260509105506 11 53 1.6 1.6 0.00 0.00 0.00 81 1010.5
20260509105004 11 73 0.0 0.0 0.00 0.00 0.00 81 1010.6
20260509104500 11 77 1.6 4.8 0.00 0.00 0.00 81 1010.7
20260509103957 11 59 0.0 1.6 0.00 0.00 0.00 80 1010.7
20260509103455 11 59 0.0 0.0 0.00 0.00 0.00 80 1010.6
20260509102953 11 59 0.0 0.0 0.00 0.00 0.00 79 1010.7
20260509102450 11 57 0.0 0.0 0.00 0.00 0.00 79 1010.7
20260509101946 11 58 0.0 3.2 0.00 0.00 0.00 78 1010.8
20260509101442 11 75 0.0 0.0 0.00 0.00 0.00 79 1010.4
20260509100940 11 75 0.0 0.0 0.00 0.00 0.00 78 1010.5
20260509100437 11 75 0.0 3.2 0.00 0.00 0.00 79 1010.6
20260509095933 11 75 0.0 0.0 0.00 0.00 0.00 80 1010.6
20260509095430 11 75 0.0 1.6 0.00 0.00 0.00 77 1010.5
20260509094927 11 75 0.0 0.0 0.00 0.00 0.00 77 1010.3
20260509094424 11 75 0.0 1.6 0.00 0.00 0.00 77 1010.4
20260509093922 11 75 0.0 0.0 0.00 0.00 0.00 77 1010.5
20260509093419 11 75 0.0 0.0 0.00 0.00 0.00 77 1010.6
20260509092917 11 75 0.0 0.0 0.00 0.00 0.00 77 1010.5
20260509092415 11 75 0.0 1.6 0.00 0.00 0.00 77 1010.5
20260509091913 11 75 0.0 0.0 0.00 0.00 0.00 77 1010.7
20260509091409 12 75 0.0 0.0 0.00 0.00 0.00 76 1010.8
20260509090907 12 75 0.0 0.0 0.00 0.00 0.00 76 1010.6
20260509090404 12 75 0.0 3.2 0.00 0.00 0.00 76 1010.4
20260509085902 12 78 0.0 3.2 0.00 0.00 0.00 75 1010.6
20260509085359 12 71 0.0 1.6 0.00 0.00 0.00 76 1010.7
20260509084854 12 71 1.6 1.6 0.00 0.00 0.00 75 1010.6
20260509084352 12 71 0.0 3.2 0.00 0.00 0.00 75 1010.8
20260509083849 11 70 1.6 1.6 0.00 0.00 0.00 75 1010.9
20260509083346 11 73 0.0 1.6 0.00 0.00 0.00 75 1010.9
20260509082843 11 71 0.0 0.0 0.00 0.00 0.00 75 1010.9
20260509082339 12 72 0.0 0.0 0.00 0.00 0.00 75 1010.9
20260509081837 12 71 0.0 0.0 0.00 0.00 0.00 75 1010.9
20260509081334 12 73 0.0 1.6 0.00 0.00 0.00 75 1010.8
20260509080832 12 71 0.0 0.0 0.00 0.00 0.00 74 1010.9
20260509080329 12 70 0.0 1.6 0.00 0.00 0.00 74 1011.0
20260509075827 11 76 1.6 1.6 0.00 0.00 0.00 74 1011.0
20260509075324 11 68 0.0 3.2 0.00 0.00 0.00 75 1011.1
20260509074821 11 67 0.0 0.0 0.00 0.00 0.00 76 1010.9
20260509074319 11 67 0.0 0.0 0.00 0.00 0.00 76 1011.0
20260509073815 11 67 0.0 0.0 0.00 0.00 0.00 75 1011.3
20260509073312 11 66 0.0 0.0 0.00 0.00 0.00 74 1010.9
20260509072808 11 66 0.0 0.0 0.00 0.00 0.00 74 1011.2
20260509072306 11 67 0.0 0.0 0.00 0.00 0.00 75 1011.2
20260509071801 11 68 0.0 1.6 0.00 0.00 0.00 75 1011.1
20260509071259 11 66 0.0 1.6 0.00 0.00 0.00 76 1011.1
20260509070755 11 66 0.0 0.0 0.00 0.00 0.00 77 1011.3
20260509070252 10 65 0.0 0.0 0.00 0.00 0.00 81 1011.4
20260509065748 10 65 0.0 0.0 0.00 0.00 0.00 81 1011.3
20260509065245 10 65 0.0 0.0 0.00 0.00 0.00 80 1011.3
20260509064741 11 65 0.0 0.0 0.00 0.00 0.00 80 1011.4
20260509064238 11 65 0.0 0.0 0.00 0.00 0.00 78 1011.4
20260509063736 11 65 0.0 0.0 0.00 0.00 0.00 79 1011.4
20260509063232 11 65 0.0 0.0 0.00 0.00 0.00 75 1011.4
20260509062730 11 65 0.0 0.0 0.00 0.00 0.00 74 1011.5
20260509062227 12 66 0.0 0.0 0.00 0.00 0.00 74 1011.5
20260509061724 12 66 0.0 0.0 0.00 0.00 0.00 74 1011.5
20260509061221 12 66 0.0 0.0 0.00 0.00 0.00 74 1011.5
20260509060719 12 66 0.0 0.0 0.00 0.00 0.00 73 1011.6
20260509060215 12 65 0.0 1.6 0.00 0.00 0.00 73 1011.4
20260509055710 12 51 1.6 3.2 0.00 0.00 0.00 72 1011.5
20260509055206 12 48 1.6 3.2 0.00 0.00 0.00 73 1011.7
20260509054703 12 56 1.6 1.6 0.00 0.00 0.00 72 1011.6
20260509054200 12 58 0.0 1.6 0.00 0.00 0.00 72 1011.7
20260509053659 12 70 0.0 1.6 0.00 0.00 0.00 73 1011.7
20260509053155 12 53 0.0 3.2 0.00 0.00 0.00 72 1011.8
20260509052653 12 56 0.0 0.0 0.00 0.00 0.00 73 1011.7
20260509052150 12 59 1.6 1.6 0.00 0.00 0.00 73 1011.7
20260509051648 12 65 1.6 1.6 0.00 0.00 0.00 73 1011.7
20260509051145 12 79 1.6 3.2 0.00 0.00 0.00 72 1011.8
20260509050642 12 76 1.6 3.2 0.00 0.00 0.00 73 1011.8
20260509050139 12 73 0.0 1.6 0.00 0.00 0.00 74 1012.0
20260509045637 12 72 0.0 1.6 0.00 0.00 0.00 74 1011.7
20260509045133 12 63 1.6 1.6 0.00 0.00 0.00 76 1012.1
20260509044630 12 50 0.0 0.0 0.00 0.00 0.00 79 1011.9
20260509044128 12 50 0.0 0.0 0.00 0.00 0.00 80 1012.1
20260509043624 12 50 0.0 0.0 0.00 0.00 0.00 81 1012.0
20260509043120 12 50 0.0 0.0 0.00 0.00 0.00 81 1012.0
20260509042617 12 50 0.0 0.0 0.00 0.00 0.00 81 1012.0
20260509042112 12 50 0.0 0.0 0.00 0.00 0.00 78 1011.9
20260509041609 12 50 0.0 1.6 0.00 0.00 0.00 78 1011.8
20260509041107 12 52 0.0 0.0 0.00 0.00 0.00 80 1011.7
20260509040605 12 52 0.0 0.0 0.00 0.00 0.00 79 1011.8
20260509035558 13 52 0.0 0.0 0.00 0.00 0.00 77 1012.2
20260509035055 12 52 0.0 0.0 0.00 0.00 0.00 78 1012.1
20260509034553 12 52 0.0 0.0 0.00 0.00 0.00 78 1012.1
20260509034050 13 52 0.0 0.0 0.00 0.00 0.00 78 1012.3
20260509033547 13 52 0.0 0.0 0.00 0.00 0.00 75 1012.2
20260509033044 13 52 0.0 0.0 0.00 0.00 0.00 75 1012.5
20260509032541 13 52 0.0 0.0 0.00 0.00 0.00 74 1012.3
20260509032038 13 52 0.0 0.0 0.00 0.00 0.00 74 1012.4
20260509031536 13 52 0.0 0.0 0.00 0.00 0.00 75 1012.4
20260509031033 13 52 0.0 0.0 0.00 0.00 0.00 75 1012.5
20260509030531 13 52 0.0 0.0 0.00 0.00 0.00 76 1012.4
20260509030027 13 52 0.0 0.0 0.00 0.00 0.00 75 1012.5
20260509025524 13 52 0.0 0.0 0.00 0.00 0.00 73 1012.5
20260509025019 13 52 0.0 0.0 0.00 0.00 0.00 74 1012.6
20260509024516 13 52 0.0 0.0 0.00 0.00 0.00 74 1012.3
20260509024012 13 52 0.0 0.0 0.00 0.00 0.00 74 1012.4
20260509023510 13 52 0.0 0.0 0.00 0.00 0.00 74 1012.3
20260509023006 13 52 0.0 0.0 0.00 0.00 0.00 75 1012.1
20260509022503 13 52 0.0 0.0 0.00 0.00 0.00 74 1012.0
20260509022001 13 52 0.0 0.0 0.00 0.00 0.00 73 1012.0
20260509021457 13 52 0.0 0.0 0.00 0.00 0.00 72 1012.0
20260509020954 13 52 0.0 0.0 0.00 0.00 0.00 73 1012.1
20260509020453 13 52 0.0 0.0 0.00 0.00 0.00 71 1011.8
20260509015949 13 52 0.0 0.0 0.00 0.00 0.00 72 1011.8
20260509015448 13 52 0.0 0.0 0.00 0.00 0.00 72 1011.9
20260509014944 13 52 0.0 0.0 0.00 0.00 0.00 70 1011.9
20260509014441 13 52 0.0 0.0 0.00 0.00 0.00 71 1012.2
20260509013937 13 52 0.0 0.0 0.00 0.00 0.00 72 1012.1
20260509013435 13 52 0.0 0.0 0.00 0.00 0.00 67 1012.0
20260509012930 13 52 0.0 0.0 0.00 0.00 0.00 66 1011.9
20260509012427 13 52 0.0 0.0 0.00 0.00 0.00 66 1011.9
20260509011924 13 52 0.0 0.0 0.00 0.00 0.00 66 1012.0
20260509011421 13 52 0.0 0.0 0.00 0.00 0.00 66 1011.8
20260509010919 13 52 0.0 0.0 0.00 0.00 0.00 65 1011.8
20260509010417 13 52 0.0 0.0 0.00 0.00 0.00 67 1011.7
20260509005913 13 52 0.0 0.0 0.00 0.00 0.00 67 1011.8
20260509005411 13 52 0.0 0.0 0.00 0.00 0.00 67 1011.9
20260509004911 13 52 0.0 0.0 0.00 0.00 0.00 67 1011.7
20260509004408 13 52 0.0 0.0 0.00 0.00 0.00 67 1011.7
20260509003906 13 52 0.0 0.0 0.00 0.00 0.00 68 1011.9
20260509003403 13 52 0.0 0.0 0.00 0.00 0.00 65 1011.6
20260509002900 13 52 0.0 0.0 0.00 0.00 0.00 64 1011.6
20260509002358 13 52 0.0 0.0 0.00 0.00 0.00 64 1011.6
20260509001855 14 52 0.0 0.0 0.00 0.00 0.00 65 1011.5
20260509001351 14 52 0.0 0.0 0.00 0.00 0.00 61 1011.6
20260509000848 14 52 0.0 0.0 0.00 0.00 0.00 61 1011.5